Time,TemperatureF,DewpointF,PressureIn,WindDirection,WindDirectionDegrees,WindSpeedMPH,WindSpeedGustMPH,Humidity,HourlyPrecipIn,Conditions,Clouds,dailyrainin,SoftwareType,DateUTC
2013-07-01 00:00:00,80.0,67.6,29.77,ENE,67,0.0,0.0,66,0.00,,,0.01,Wunderground v.1.15,2013-07-01 05:00:00,
2013-07-01 00:06:00,79.7,67.8,29.77,ENE,67,0.0,0.0,67,0.00,,,0.00,Wunderground v.1.15,2013-07-01 05:06:00,
2013-07-01 00:11:00,79.6,67.7,29.77,ENE,67,0.0,0.0,67,0.00,,,0.00,Wunderground v.1.15,2013-07-01 05:11:00,
2013-07-01 00:17:00,79.4,67.5,29.77,NNW,342,0.0,0.0,67,0.00,,,0.00,Wunderground v.1.15,2013-07-01 05:17:00,
2013-07-01 00:23:00,79.2,67.7,29.77,NNW,339,0.0,0.0,68,0.00,,,0.00,Wunderground v.1.15,2013-07-01 05:23:00,
2013-07-01 00:28:00,79.1,67.6,29.77,ENE,69,0.0,1.0,68,0.00,,,0.00,Wunderground v.1.15,2013-07-01 05:28:00,
2013-07-01 00:34:00,79.1,68.1,29.77,North,355,0.0,0.0,69,0.00,,,0.00,Wunderground v.1.15,2013-07-01 05:34:00,
2013-07-01 00:40:00,79.0,68.0,29.77,NNE,17,0.0,0.0,69,0.00,,,0.00,Wunderground v.1.15,2013-07-01 05:40:00,
2013-07-01 00:46:00,79.0,68.0,29.77,NNE,17,0.0,0.0,69,0.00,,,0.00,Wunderground v.1.15,2013-07-01 05:46:00,
2013-07-01 00:51:00,79.1,68.1,29.77,NE,45,0.0,0.0,69,0.00,,,0.00,Wunderground v.1.15,2013-07-01 05:51:00,
2013-07-01 00:57:00,79.0,68.4,29.77,NE,46,0.0,0.0,70,0.00,,,0.00,Wunderground v.1.15,2013-07-01 05:57:00,
2013-07-01 01:02:00,78.9,67.9,29.77,East,92,0.0,3.0,69,0.00,,,0.00,Wunderground v.1.15,2013-07-01 06:02:00,
2013-07-01 01:08:00,78.9,68.3,29.77,East,101,1.0,3.0,70,0.00,,,0.00,Wunderground v.1.15,2013-07-01 06:08:00,
2013-07-01 01:14:00,78.8,68.2,29.77,NNE,28,0.0,1.0,70,0.00,,,0.00,Wunderground v.1.15,2013-07-01 06:14:00,
2013-07-01 01:19:00,78.7,68.1,29.77,NNE,28,0.0,1.0,70,0.00,,,0.00,Wunderground v.1.15,2013-07-01 06:19:00,
2013-07-01 01:24:00,78.7,68.1,29.77,NNE,28,0.0,0.0,70,0.00,,,0.00,Wunderground v.1.15,2013-07-01 06:24:00,
2013-07-01 01:30:00,78.6,68.4,29.77,NNE,29,0.0,0.0,71,0.00,,,0.00,Wunderground v.1.15,2013-07-01 06:30:00,
2013-07-01 01:35:00,78.5,67.9,29.77,NNE,14,0.0,0.0,70,0.00,,,0.00,Wunderground v.1.15,2013-07-01 06:35:00,
2013-07-01 01:41:00,78.5,68.3,29.77,NNE,26,0.0,0.0,71,0.00,,,0.00,Wunderground v.1.15,2013-07-01 06:41:00,
2013-07-01 01:47:00,78.4,68.2,29.77,ENE,71,0.0,2.0,71,0.00,,,0.00,Wunderground v.1.15,2013-07-01 06:47:00,
2013-07-01 01:52:00,78.3,68.1,29.77,ENE,57,0.0,0.0,71,0.00,,,0.00,Wunderground v.1.15,2013-07-01 06:52:00,
2013-07-01 01:58:00,78.2,68.4,29.76,SSW,200,0.0,1.0,72,0.00,,,0.00,Wunderground v.1.15,2013-07-01 06:58:00,
2013-07-01 02:03:00,78.1,68.3,29.77,WNW,291,0.0,0.0,72,0.00,,,0.00,Wunderground v.1.15,2013-07-01 07:03:00,
2013-07-01 02:09:00,78.0,68.2,29.76,NW,323,0.0,0.0,72,0.00,,,0.00,Wunderground v.1.15,2013-07-01 07:09:00,
2013-07-01 02:15:00,77.9,68.1,29.76,NE,35,0.0,1.0,72,0.00,,,0.00,Wunderground v.1.15,2013-07-01 07:15:00,
2013-07-01 02:20:00,77.8,68.4,29.76,East,80,0.0,1.0,73,0.00,,,0.00,Wunderground v.1.15,2013-07-01 07:20:00,
2013-07-01 02:26:00,77.7,68.4,29.76,WNW,292,0.0,1.0,73,0.00,,,0.00,Wunderground v.1.15,2013-07-01 07:26:00,
2013-07-01 02:32:00,77.6,68.3,29.77,ENE,57,0.0,0.0,73,0.00,,,0.00,Wunderground v.1.15,2013-07-01 07:32:00,
2013-07-01 02:38:00,77.5,68.2,29.77,ENE,57,0.0,3.0,73,0.00,,,0.00,Wunderground v.1.15,2013-07-01 07:38:00,
2013-07-01 02:43:00,77.5,68.6,29.76,North,355,0.0,1.0,74,0.00,,,0.00,Wunderground v.1.15,2013-07-01 07:43:00,
2013-07-01 02:49:00,77.4,68.5,29.76,WSW,258,0.0,1.0,74,0.00,,,0.00,Wunderground v.1.15,2013-07-01 07:49:00,
2013-07-01 02:54:00,77.4,68.5,29.77,NE,56,0.0,0.0,74,0.00,,,0.00,Wunderground v.1.15,2013-07-01 07:54:00,
2013-07-01 02:59:00,77.3,68.4,29.77,NNE,17,0.0,3.0,74,0.00,,,0.00,Wunderground v.1.15,2013-07-01 07:59:00,
2013-07-01 03:05:00,77.2,68.7,29.77,NE,44,0.0,1.0,75,0.00,,,0.00,Wunderground v.1.15,2013-07-01 08:05:00,
2013-07-01 03:10:00,77.2,68.7,29.76,SSE,148,0.0,0.0,75,0.00,,,0.00,Wunderground v.1.15,2013-07-01 08:10:00,
2013-07-01 03:16:00,77.1,68.6,29.76,West,263,0.0,2.0,75,0.00,,,0.00,Wunderground v.1.15,2013-07-01 08:16:00,
2013-07-01 03:22:00,77.0,68.9,29.77,NE,55,0.0,0.0,76,0.00,,,0.00,Wunderground v.1.15,2013-07-01 08:22:00,
2013-07-01 03:27:00,76.8,68.7,29.77,West,265,0.0,0.0,76,0.00,,,0.00,Wunderground v.1.15,2013-07-01 08:27:00,
2013-07-01 03:33:00,76.7,68.9,29.77,NE,44,0.0,1.0,77,0.00,,,0.00,Wunderground v.1.15,2013-07-01 08:33:00,
2013-07-01 03:39:00,76.6,68.8,29.77,North,355,0.0,1.0,77,0.00,,,0.00,Wunderground v.1.15,2013-07-01 08:39:00,
2013-07-01 03:44:00,76.5,68.7,29.77,NNE,31,0.0,0.0,77,0.00,,,0.00,Wunderground v.1.15,2013-07-01 08:44:00,
2013-07-01 03:50:00,76.4,68.7,29.77,ENE,61,0.0,0.0,77,0.00,,,0.00,Wunderground v.1.15,2013-07-01 08:50:00,
2013-07-01 03:56:00,76.3,68.9,29.77,ESE,111,0.0,1.0,78,0.00,,,0.00,Wunderground v.1.15,2013-07-01 08:56:00,
2013-07-01 04:01:00,76.1,68.7,29.77,NE,45,0.0,0.0,78,0.00,,,0.00,Wunderground v.1.15,2013-07-01 09:01:00,
2013-07-01 04:07:00,76.0,68.6,29.77,ENE,69,0.0,0.0,78,0.00,,,0.00,Wunderground v.1.15,2013-07-01 09:07:00,
2013-07-01 04:13:00,75.9,68.5,29.77,WNW,299,0.0,0.0,78,0.00,,,0.00,Wunderground v.1.15,2013-07-01 09:13:00,
2013-07-01 04:18:00,75.8,68.4,29.78,NW,321,0.0,1.0,78,0.00,,,0.00,Wunderground v.1.15,2013-07-01 09:18:00,
2013-07-01 04:24:00,75.6,68.6,29.78,NE,46,0.0,3.0,79,0.00,,,0.00,Wunderground v.1.15,2013-07-01 09:24:00,
2013-07-01 04:30:00,75.5,68.5,29.78,NNE,26,0.0,0.0,79,0.00,,,0.00,Wunderground v.1.15,2013-07-01 09:30:00,
2013-07-01 04:35:00,75.3,68.7,29.78,North,11,0.0,1.0,80,0.00,,,0.00,Wunderground v.1.15,2013-07-01 09:35:00,
2013-07-01 04:41:00,75.2,68.6,29.78,NE,53,0.0,0.0,80,0.00,,,0.00,Wunderground v.1.15,2013-07-01 09:41:00,
2013-07-01 04:46:00,75.0,68.4,29.78,North,9,0.0,1.0,80,0.00,,,0.00,Wunderground v.1.15,2013-07-01 09:46:00,
2013-07-01 04:52:00,74.9,68.3,29.78,ENE,69,0.0,0.0,80,0.00,,,0.00,Wunderground v.1.15,2013-07-01 09:52:00,
2013-07-01 04:58:00,74.8,68.6,29.78,East,90,0.0,2.0,81,0.00,,,0.00,Wunderground v.1.15,2013-07-01 09:58:00,
2013-07-01 05:03:00,74.7,68.5,29.78,North,355,0.0,0.0,81,0.00,,,0.00,Wunderground v.1.15,2013-07-01 10:03:00,
2013-07-01 05:09:00,74.6,68.4,29.79,NNW,344,0.0,0.0,81,0.00,,,0.00,Wunderground v.1.15,2013-07-01 10:09:00,
2013-07-01 05:15:00,74.5,68.3,29.79,ENE,64,0.0,1.0,81,0.00,,,0.00,Wunderground v.1.15,2013-07-01 10:15:00,
2013-07-01 05:20:00,74.4,68.2,29.79,ENE,64,0.0,0.0,81,0.00,,,0.00,Wunderground v.1.15,2013-07-01 10:20:00,
2013-07-01 05:26:00,74.3,68.1,29.79,ENE,64,0.0,0.0,81,0.00,,,0.00,Wunderground v.1.15,2013-07-01 10:26:00,
2013-07-01 05:32:00,74.1,68.3,29.79,ENE,64,0.0,0.0,82,0.00,,,0.00,Wunderground v.1.15,2013-07-01 10:32:00,
2013-07-01 05:37:00,73.9,68.1,29.79,ENE,74,0.0,0.0,82,0.00,,,0.00,Wunderground v.1.15,2013-07-01 10:37:00,
2013-07-01 05:43:00,73.8,68.0,29.79,ENE,68,0.0,0.0,82,0.00,,,0.00,Wunderground v.1.15,2013-07-01 10:43:00,
2013-07-01 05:49:00,73.7,67.9,29.80,NNE,22,0.0,1.0,82,0.00,,,0.00,Wunderground v.1.15,2013-07-01 10:49:00,
2013-07-01 05:54:00,73.6,67.8,29.80,NNE,18,0.0,2.0,82,0.00,,,0.00,Wunderground v.1.15,2013-07-01 10:54:00,
2013-07-01 06:00:00,73.5,68.0,29.80,NE,41,0.0,0.0,83,0.00,,,0.00,Wunderground v.1.15,2013-07-01 11:00:00,
2013-07-01 06:05:00,73.4,67.9,29.80,East,86,0.0,0.0,83,0.00,,,0.00,Wunderground v.1.15,2013-07-01 11:05:00,
2013-07-01 06:11:00,73.3,67.8,29.80,ESE,105,0.0,0.0,83,0.00,,,0.00,Wunderground v.1.15,2013-07-01 11:11:00,
2013-07-01 06:17:00,73.3,67.8,29.80,East,92,0.0,0.0,83,0.00,,,0.00,Wunderground v.1.15,2013-07-01 11:17:00,
2013-07-01 06:22:00,73.3,67.8,29.80,WNW,290,0.0,0.0,83,0.00,,,0.00,Wunderground v.1.15,2013-07-01 11:22:00,
2013-07-01 06:28:00,73.3,67.8,29.80,NE,36,0.0,2.0,83,0.00,,,0.00,Wunderground v.1.15,2013-07-01 11:28:00,
2013-07-01 06:34:00,73.3,67.8,29.81,NNE,32,0.0,0.0,83,0.00,,,0.00,Wunderground v.1.15,2013-07-01 11:34:00,
2013-07-01 06:39:00,73.3,68.2,29.81,East,94,0.0,0.0,84,0.00,,,0.00,Wunderground v.1.15,2013-07-01 11:39:00,
2013-07-01 06:45:00,73.3,67.8,29.81,West,277,0.0,2.0,83,0.00,,,0.00,Wunderground v.1.15,2013-07-01 11:45:00,
2013-07-01 06:51:00,73.4,67.9,29.81,ENE,71,0.0,3.0,83,0.00,,,0.00,Wunderground v.1.15,2013-07-01 11:51:00,
2013-07-01 06:56:00,73.5,68.0,29.81,NNE,14,0.0,3.0,83,0.00,,,0.00,Wunderground v.1.15,2013-07-01 11:56:00,
2013-07-01 07:02:00,73.6,68.1,29.81,NE,50,0.0,0.0,83,0.00,,,0.00,Wunderground v.1.15,2013-07-01 12:02:00,
2013-07-01 07:07:00,73.7,68.2,29.81,NE,55,0.0,2.0,83,0.00,,,0.00,Wunderground v.1.15,2013-07-01 12:07:00,
2013-07-01 07:13:00,73.8,68.3,29.82,NNE,19,0.0,0.0,83,0.00,,,0.00,Wunderground v.1.15,2013-07-01 12:13:00,
2013-07-01 07:19:00,74.0,68.2,29.82,NE,34,0.0,5.0,82,0.00,,,0.00,Wunderground v.1.15,2013-07-01 12:19:00,
2013-07-01 07:24:00,74.2,68.0,29.82,SSE,152,1.0,1.0,81,0.00,,,0.00,Wunderground v.1.15,2013-07-01 12:24:00,
2013-07-01 07:30:00,74.5,68.3,29.82,East,98,0.0,0.0,81,0.00,,,0.00,Wunderground v.1.15,2013-07-01 12:30:00,
2013-07-01 07:36:00,75.0,68.4,29.82,NNW,339,0.0,2.0,80,0.00,,,0.00,Wunderground v.1.15,2013-07-01 12:36:00,
2013-07-01 07:41:00,75.5,68.2,29.83,NNE,30,1.0,6.0,78,0.00,,,0.00,Wunderground v.1.15,2013-07-01 12:41:00,
2013-07-01 07:47:00,75.9,68.5,29.83,ENE,57,1.0,6.0,78,0.00,,,0.00,Wunderground v.1.15,2013-07-01 12:47:00,
2013-07-01 07:53:00,76.4,68.7,29.83,ESE,105,0.0,1.0,77,0.00,,,0.00,Wunderground v.1.15,2013-07-01 12:53:00,
2013-07-01 07:58:00,77.1,68.6,29.83,NE,45,0.0,1.0,75,0.00,,,0.00,Wunderground v.1.15,2013-07-01 12:58:00,
2013-07-01 08:04:00,77.7,68.4,29.83,NE,51,0.0,1.0,73,0.00,,,0.00,Wunderground v.1.15,2013-07-01 13:04:00,
2013-07-01 08:09:00,78.0,68.6,29.83,NNE,26,1.0,4.0,73,0.00,,,0.00,Wunderground v.1.15,2013-07-01 13:09:00,
2013-07-01 08:15:00,78.0,68.6,29.83,North,5,0.0,1.0,73,0.00,,,0.00,Wunderground v.1.15,2013-07-01 13:15:00,
2013-07-01 08:21:00,78.1,68.3,29.83,NW,319,0.0,2.0,72,0.00,,,0.00,Wunderground v.1.15,2013-07-01 13:21:00,
2013-07-01 08:27:00,78.5,68.7,29.83,NNW,348,0.0,2.0,72,0.00,,,0.00,Wunderground v.1.15,2013-07-01 13:27:00,
2013-07-01 08:33:00,78.7,68.5,29.84,North,360,1.0,1.0,71,0.00,,,0.00,Wunderground v.1.15,2013-07-01 13:33:00,
2013-07-01 08:39:00,78.9,68.3,29.84,NW,315,0.0,1.0,70,0.00,,,0.00,Wunderground v.1.15,2013-07-01 13:39:00,
2013-07-01 08:44:00,79.2,69.0,29.84,NE,41,0.0,0.0,71,0.00,,,0.00,Wunderground v.1.15,2013-07-01 13:44:00,
2013-07-01 08:49:00,79.8,69.1,29.84,NNE,32,0.0,0.0,70,0.00,,,0.00,Wunderground v.1.15,2013-07-01 13:49:00,
2013-07-01 08:55:00,79.8,68.3,29.84,North,360,0.0,2.0,68,0.00,,,0.00,Wunderground v.1.15,2013-07-01 13:55:00,
2013-07-01 09:00:00,80.2,68.2,29.84,NNW,331,0.0,4.0,67,0.00,,,0.00,Wunderground v.1.15,2013-07-01 14:00:00,
2013-07-01 09:06:00,80.4,68.4,29.84,NW,319,0.0,4.0,67,0.00,,,0.00,Wunderground v.1.15,2013-07-01 14:06:00,
2013-07-01 09:12:00,81.1,68.7,29.84,East,85,0.0,0.0,66,0.00,,,0.00,Wunderground v.1.15,2013-07-01 14:12:00,
2013-07-01 09:18:00,81.3,68.4,29.84,East,88,1.0,3.0,65,0.00,,,0.00,Wunderground v.1.15,2013-07-01 14:18:00,
2013-07-01 09:23:00,81.2,68.8,29.84,NE,44,1.0,2.0,66,0.00,,,0.00,Wunderground v.1.15,2013-07-01 14:23:00,
2013-07-01 09:29:00,81.8,69.3,29.84,North,9,0.0,2.0,66,0.00,,,0.00,Wunderground v.1.15,2013-07-01 14:29:00,
2013-07-01 09:34:00,81.6,69.6,29.84,NE,35,0.0,0.0,67,0.00,,,0.00,Wunderground v.1.15,2013-07-01 14:34:00,
2013-07-01 09:40:00,81.9,69.0,29.84,ENE,75,0.0,0.0,65,0.00,,,0.00,Wunderground v.1.15,2013-07-01 14:40:00,
2013-07-01 09:46:00,82.8,70.3,29.84,South,174,0.0,0.0,66,0.00,,,0.00,Wunderground v.1.15,2013-07-01 14:46:00,
2013-07-01 09:52:00,82.6,68.7,29.84,NNW,337,0.0,3.0,63,0.00,,,0.00,Wunderground v.1.15,2013-07-01 14:52:00,
2013-07-01 09:57:00,82.9,69.9,29.84,SSW,194,0.0,3.0,65,0.00,,,0.00,Wunderground v.1.15,2013-07-01 14:57:00,
2013-07-01 10:03:00,83.6,69.7,29.84,SW,222,0.0,1.0,63,0.00,,,0.00,Wunderground v.1.15,2013-07-01 15:03:00,
2013-07-01 10:08:00,83.5,69.6,29.85,NE,37,0.0,1.0,63,0.00,,,0.00,Wunderground v.1.15,2013-07-01 15:08:00,
2013-07-01 10:14:00,84.2,70.7,29.85,NW,315,0.0,0.0,64,0.00,,,0.00,Wunderground v.1.15,2013-07-01 15:14:00,
2013-07-01 10:19:00,84.0,68.6,29.84,WSW,256,0.0,0.0,60,0.00,,,0.00,Wunderground v.1.15,2013-07-01 15:19:00,
2013-07-01 10:25:00,84.3,69.4,29.84,ENE,57,0.0,2.0,61,0.00,,,0.00,Wunderground v.1.15,2013-07-01 15:25:00,
2013-07-01 10:31:00,84.1,69.2,29.84,ENE,65,1.0,1.0,61,0.00,,,0.00,Wunderground v.1.15,2013-07-01 15:31:00,
2013-07-01 10:37:00,84.1,69.2,29.84,NNE,20,0.0,1.0,61,0.00,,,0.00,Wunderground v.1.15,2013-07-01 15:37:00,
2013-07-01 10:43:00,84.7,69.3,29.84,SSW,198,0.0,0.0,60,0.00,,,0.00,Wunderground v.1.15,2013-07-01 15:43:00,
2013-07-01 10:49:00,85.0,69.6,29.84,NE,45,1.0,3.0,60,0.00,,,0.00,Wunderground v.1.15,2013-07-01 15:49:00,
2013-07-01 10:55:00,84.8,69.4,29.84,WNW,284,0.0,1.0,60,0.00,,,0.00,Wunderground v.1.15,2013-07-01 15:55:00,
2013-07-01 11:00:00,85.0,70.5,29.84,North,5,0.0,0.0,62,0.00,,,0.00,Wunderground v.1.15,2013-07-01 16:00:00,
2013-07-01 11:06:00,85.3,69.3,29.85,NNE,19,0.0,3.0,59,0.00,,,0.00,Wunderground v.1.15,2013-07-01 16:06:00,
2013-07-01 11:11:00,85.4,69.4,29.84,NNW,335,1.0,2.0,59,0.00,,,0.00,Wunderground v.1.15,2013-07-01 16:11:00,
2013-07-01 11:17:00,86.0,70.5,29.84,SW,234,1.0,2.0,60,0.00,,,0.00,Wunderground v.1.15,2013-07-01 16:17:00,
2013-07-01 11:23:00,86.0,70.5,29.84,NE,56,1.0,2.0,60,0.00,,,0.00,Wunderground v.1.15,2013-07-01 16:23:00,
2013-07-01 11:28:00,85.9,68.9,29.84,East,99,1.0,3.0,57,0.00,,,0.00,Wunderground v.1.15,2013-07-01 16:28:00,
2013-07-01 11:34:00,85.5,68.5,29.84,NNE,26,1.0,1.0,57,0.00,,,0.00,Wunderground v.1.15,2013-07-01 16:34:00,
2013-07-01 11:40:00,85.5,68.5,29.84,NE,53,1.0,1.0,57,0.00,,,0.00,Wunderground v.1.15,2013-07-01 16:40:00,
2013-07-01 11:45:00,85.7,68.7,29.84,West,267,1.0,2.0,57,0.00,,,0.00,Wunderground v.1.15,2013-07-01 16:45:00,
2013-07-01 11:51:00,86.2,68.7,29.84,East,80,1.0,1.0,56,0.00,,,0.00,Wunderground v.1.15,2013-07-01 16:51:00,
2013-07-01 11:57:00,87.0,67.8,29.84,ENE,63,1.0,2.0,53,0.00,,,0.00,Wunderground v.1.15,2013-07-01 16:57:00,
2013-07-01 12:02:00,87.3,69.2,29.84,North,360,1.0,1.0,55,0.00,,,0.00,Wunderground v.1.15,2013-07-01 17:02:00,
2013-07-01 12:08:00,87.3,68.1,29.84,NE,40,0.0,2.0,53,0.00,,,0.00,Wunderground v.1.15,2013-07-01 17:08:00,
2013-07-01 12:14:00,87.1,67.9,29.84,NNW,331,1.0,2.0,53,0.00,,,0.00,Wunderground v.1.15,2013-07-01 17:14:00,
2013-07-01 12:19:00,88.1,69.9,29.84,NNE,23,1.0,2.0,55,0.00,,,0.00,Wunderground v.1.15,2013-07-01 17:19:00,
2013-07-01 12:25:00,87.7,66.8,29.84,NE,36,1.0,5.0,50,0.00,,,0.00,Wunderground v.1.15,2013-07-01 17:25:00,
2013-07-01 12:30:00,87.2,66.3,29.84,NE,41,2.0,6.0,50,0.00,,,0.00,Wunderground v.1.15,2013-07-01 17:30:00,
2013-07-01 12:36:00,87.0,66.7,29.84,NNW,330,2.0,6.0,51,0.00,,,0.00,Wunderground v.1.15,2013-07-01 17:36:00,
2013-07-01 12:41:00,87.7,68.4,29.83,SE,146,1.0,1.0,53,0.00,,,0.00,Wunderground v.1.15,2013-07-01 17:41:00,
2013-07-01 12:47:00,87.8,67.4,29.83,SSW,209,1.0,6.0,51,0.00,,,0.00,Wunderground v.1.15,2013-07-01 17:47:00,
2013-07-01 12:53:00,87.8,66.8,29.83,SE,144,2.0,5.0,50,0.00,,,0.00,Wunderground v.1.15,2013-07-01 17:53:00,
2013-07-01 12:58:00,89.2,69.3,29.83,ESE,123,1.0,5.0,52,0.00,,,0.00,Wunderground v.1.15,2013-07-01 17:58:00,
2013-07-01 13:04:00,89.0,69.1,29.83,ESE,106,0.0,4.0,52,0.00,,,0.00,Wunderground v.1.15,2013-07-01 18:04:00,
2013-07-01 13:10:00,87.7,66.8,29.83,NE,49,1.0,1.0,50,0.00,,,0.00,Wunderground v.1.15,2013-07-01 18:10:00,
2013-07-01 13:16:00,87.8,67.4,29.83,SE,126,1.0,3.0,51,0.00,,,0.00,Wunderground v.1.15,2013-07-01 18:16:00,
2013-07-01 13:21:00,87.0,67.2,29.83,NE,51,1.0,2.0,52,0.00,,,0.00,Wunderground v.1.15,2013-07-01 18:21:00,
2013-07-01 13:27:00,87.1,66.8,29.83,ESE,120,1.0,3.0,51,0.00,,,0.00,Wunderground v.1.15,2013-07-01 18:27:00,
2013-07-01 13:33:00,87.8,67.4,29.83,WNW,293,0.0,2.0,51,0.00,,,0.00,Wunderground v.1.15,2013-07-01 18:33:00,
2013-07-01 13:38:00,89.1,68.6,29.82,NE,41,0.0,2.0,51,0.00,,,0.00,Wunderground v.1.15,2013-07-01 18:38:00,
2013-07-01 13:44:00,88.9,66.7,29.82,East,90,1.0,5.0,48,0.00,,,0.00,Wunderground v.1.15,2013-07-01 18:44:00,
2013-07-01 13:50:00,88.8,66.6,29.82,NE,40,1.0,1.0,48,0.00,,,0.00,Wunderground v.1.15,2013-07-01 18:50:00,
2013-07-01 13:56:00,87.5,67.7,29.82,ESE,109,1.0,1.0,52,0.00,,,0.00,Wunderground v.1.15,2013-07-01 18:56:00,
2013-07-01 14:01:00,89.2,67.5,29.82,North,5,1.0,1.0,49,0.00,,,0.00,Wunderground v.1.15,2013-07-01 19:01:00,
2013-07-01 14:06:00,87.8,66.3,29.81,East,91,0.0,2.0,49,0.00,,,0.00,Wunderground v.1.15,2013-07-01 19:06:00,
2013-07-01 14:12:00,87.9,66.4,29.81,NW,324,0.0,0.0,49,0.00,,,0.00,Wunderground v.1.15,2013-07-01 19:12:00,
2013-07-01 14:18:00,88.4,66.2,29.81,North,10,1.0,2.0,48,0.00,,,0.00,Wunderground v.1.15,2013-07-01 19:18:00,
2013-07-01 14:24:00,88.9,66.7,29.81,North,360,1.0,1.0,48,0.00,,,0.00,Wunderground v.1.15,2013-07-01 19:24:00,
2013-07-01 14:30:00,88.8,67.8,29.81,NE,51,1.0,1.0,50,0.00,,,0.00,Wunderground v.1.15,2013-07-01 19:30:00,
2013-07-01 14:36:00,89.1,66.9,29.81,NNW,333,1.0,1.0,48,0.00,,,0.00,Wunderground v.1.15,2013-07-01 19:36:00,
2013-07-01 14:42:00,89.0,66.8,29.81,ESE,110,1.0,6.0,48,0.00,,,0.00,Wunderground v.1.15,2013-07-01 19:42:00,
2013-07-01 14:48:00,89.3,67.6,29.81,SE,124,1.0,6.0,49,0.00,,,0.00,Wunderground v.1.15,2013-07-01 19:48:00,
2013-07-01 14:53:00,89.7,66.8,29.82,NNE,16,0.0,4.0,47,0.00,,,0.00,Wunderground v.1.15,2013-07-01 19:53:00,
2013-07-01 14:59:00,89.9,65.7,29.82,NW,323,0.0,4.0,45,0.00,,,0.00,Wunderground v.1.15,2013-07-01 19:59:00,
2013-07-01 15:04:00,89.1,66.9,29.82,SSE,161,0.0,2.0,48,0.00,,,0.00,Wunderground v.1.15,2013-07-01 20:04:00,
2013-07-01 15:10:00,88.4,66.2,29.82,NW,314,0.0,0.0,48,0.00,,,0.00,Wunderground v.1.15,2013-07-01 20:10:00,
2013-07-01 15:16:00,87.2,66.3,29.82,NW,314,0.0,3.0,50,0.00,,,0.00,Wunderground v.1.15,2013-07-01 20:16:00,
2013-07-01 15:21:00,89.0,67.9,29.82,East,99,0.0,0.0,50,0.00,,,0.00,Wunderground v.1.15,2013-07-01 20:21:00,
2013-07-01 15:27:00,88.7,67.7,29.82,East,91,0.0,0.0,50,0.00,,,0.00,Wunderground v.1.15,2013-07-01 20:27:00,
2013-07-01 15:32:00,88.2,67.2,29.82,NE,48,0.0,2.0,50,0.00,,,0.00,Wunderground v.1.15,2013-07-01 20:32:00,
2013-07-01 15:38:00,89.3,67.6,29.82,NW,313,0.0,4.0,49,0.00,,,0.00,Wunderground v.1.15,2013-07-01 20:38:00,
2013-07-01 15:44:00,87.9,65.8,29.82,NE,51,0.0,0.0,48,0.00,,,0.00,Wunderground v.1.15,2013-07-01 20:44:00,
2013-07-01 15:49:00,87.0,66.7,29.82,NW,306,0.0,0.0,51,0.00,,,0.00,Wunderground v.1.15,2013-07-01 20:49:00,
2013-07-01 15:55:00,86.6,65.7,29.82,ENE,63,1.0,2.0,50,0.00,,,0.00,Wunderground v.1.15,2013-07-01 20:55:00,
2013-07-01 16:01:00,88.4,68.0,29.82,NE,36,1.0,1.0,51,0.00,,,0.00,Wunderground v.1.15,2013-07-01 21:01:00,
2013-07-01 16:06:00,88.8,66.0,29.82,SSW,202,0.0,1.0,47,0.00,,,0.00,Wunderground v.1.15,2013-07-01 21:06:00,
2013-07-01 16:12:00,89.3,68.2,29.82,NW,304,0.0,0.0,50,0.00,,,0.00,Wunderground v.1.15,2013-07-01 21:12:00,
2013-07-01 16:18:00,88.6,67.0,29.82,NNE,29,1.0,7.0,49,0.00,,,0.00,Wunderground v.1.15,2013-07-01 21:18:00,
2013-07-01 16:23:00,87.7,67.3,29.82,ESE,118,1.0,1.0,51,0.00,,,0.00,Wunderground v.1.15,2013-07-01 21:23:00,
2013-07-01 16:29:00,88.8,68.3,29.82,East,94,0.0,2.0,51,0.00,,,0.00,Wunderground v.1.15,2013-07-01 21:29:00,
2013-07-01 16:35:00,89.0,65.5,29.82,NNE,17,0.0,1.0,46,0.00,,,0.00,Wunderground v.1.15,2013-07-01 21:35:00,
2013-07-01 16:41:00,87.7,66.2,29.82,NNE,26,1.0,1.0,49,0.00,,,0.00,Wunderground v.1.15,2013-07-01 21:41:00,
2013-07-01 16:46:00,88.7,67.7,29.81,NNE,19,1.0,2.0,50,0.00,,,0.00,Wunderground v.1.15,2013-07-01 21:46:00,
2013-07-01 16:52:00,89.0,66.8,29.81,SSW,207,1.0,1.0,48,0.00,,,0.00,Wunderground v.1.15,2013-07-01 21:52:00,
2013-07-01 16:58:00,89.4,67.7,29.81,NW,309,1.0,1.0,49,0.00,,,0.00,Wunderground v.1.15,2013-07-01 21:58:00,
2013-07-01 17:03:00,89.3,65.8,29.81,NE,51,1.0,3.0,46,0.00,,,0.00,Wunderground v.1.15,2013-07-01 22:03:00,
2013-07-01 17:09:00,89.5,64.7,29.81,NE,54,1.0,3.0,44,0.00,,,0.00,Wunderground v.1.15,2013-07-01 22:09:00,
2013-07-01 17:15:00,89.0,65.5,29.81,SE,136,1.0,2.0,46,0.00,,,0.00,Wunderground v.1.15,2013-07-01 22:15:00,
2013-07-01 17:20:00,89.2,66.3,29.81,East,101,1.0,1.0,47,0.00,,,0.00,Wunderground v.1.15,2013-07-01 22:20:00,
2013-07-01 17:26:00,89.2,65.1,29.81,WSW,254,1.0,2.0,45,0.00,,,0.00,Wunderground v.1.15,2013-07-01 22:26:00,
2013-07-01 17:32:00,88.3,64.9,29.82,NW,325,0.0,1.0,46,0.00,,,0.00,Wunderground v.1.15,2013-07-01 22:32:00,
2013-07-01 17:37:00,88.3,65.5,29.82,East,96,1.0,1.0,47,0.00,,,0.00,Wunderground v.1.15,2013-07-01 22:37:00,
2013-07-01 17:43:00,88.9,65.4,29.82,ENE,65,0.0,3.0,46,0.00,,,0.00,Wunderground v.1.15,2013-07-01 22:43:00,
2013-07-01 17:48:00,89.4,67.1,29.82,NNE,14,0.0,3.0,48,0.00,,,0.00,Wunderground v.1.15,2013-07-01 22:48:00,
2013-07-01 17:54:00,89.0,66.8,29.82,ENE,71,0.0,5.0,48,0.00,,,0.00,Wunderground v.1.15,2013-07-01 22:54:00,
2013-07-01 18:00:00,88.7,67.1,29.82,WSW,252,1.0,1.0,49,0.00,,,0.00,Wunderground v.1.15,2013-07-01 23:00:00,
2013-07-01 18:06:00,88.4,66.8,29.82,NE,44,0.0,1.0,49,0.00,,,0.00,Wunderground v.1.15,2013-07-01 23:06:00,
2013-07-01 18:11:00,88.0,66.4,29.82,North,355,0.0,2.0,49,0.00,,,0.00,Wunderground v.1.15,2013-07-01 23:11:00,
2013-07-01 18:17:00,88.3,66.7,29.82,NE,56,0.0,2.0,49,0.00,,,0.00,Wunderground v.1.15,2013-07-01 23:17:00,
2013-07-01 18:23:00,88.0,67.0,29.83,NE,34,0.0,3.0,50,0.00,,,0.00,Wunderground v.1.15,2013-07-01 23:23:00,
2013-07-01 18:28:00,87.7,66.2,29.83,WNW,294,0.0,3.0,49,0.00,,,0.00,Wunderground v.1.15,2013-07-01 23:28:00,
2013-07-01 18:34:00,87.6,66.7,29.83,East,87,0.0,0.0,50,0.00,,,0.00,Wunderground v.1.15,2013-07-01 23:34:00,
2013-07-01 18:39:00,87.7,66.8,29.83,NNE,25,0.0,0.0,50,0.00,,,0.00,Wunderground v.1.15,2013-07-01 23:39:00,
2013-07-01 18:45:00,87.7,67.3,29.83,East,88,0.0,0.0,51,0.00,,,0.00,Wunderground v.1.15,2013-07-01 23:45:00,
2013-07-01 18:51:00,87.5,67.1,29.83,SW,234,0.0,0.0,51,0.00,,,0.00,Wunderground v.1.15,2013-07-01 23:51:00,
2013-07-01 18:57:00,87.3,67.5,29.84,NNE,27,0.0,3.0,52,0.00,,,0.00,Wunderground v.1.15,2013-07-01 23:57:00,
2013-07-01 19:02:00,87.0,66.7,29.84,NW,320,0.0,0.0,51,0.00,,,0.00,Wunderground v.1.15,2013-07-02 00:02:00,
2013-07-01 19:08:00,86.8,67.1,29.84,WNW,296,0.0,1.0,52,0.00,,,0.00,Wunderground v.1.15,2013-07-02 00:08:00,
2013-07-01 19:13:00,86.6,66.9,29.84,WNW,292,0.0,3.0,52,0.00,,,0.00,Wunderground v.1.15,2013-07-02 00:13:00,
2013-07-01 19:19:00,86.5,66.8,29.85,NW,322,0.0,3.0,52,0.00,,,0.00,Wunderground v.1.15,2013-07-02 00:19:00,
2013-07-01 19:25:00,86.3,67.7,29.85,NW,322,0.0,0.0,54,0.00,,,0.00,Wunderground v.1.15,2013-07-02 00:25:00,
2013-07-01 19:30:00,86.1,67.5,29.85,NW,322,0.0,0.0,54,0.00,,,0.00,Wunderground v.1.15,2013-07-02 00:30:00,
2013-07-01 19:36:00,85.8,66.7,29.85,North,5,0.0,0.0,53,0.00,,,0.00,Wunderground v.1.15,2013-07-02 00:36:00,
2013-07-01 19:42:00,85.6,66.5,29.85,North,360,0.0,0.0,53,0.00,,,0.00,Wunderground v.1.15,2013-07-02 00:42:00,
2013-07-01 19:47:00,85.4,66.9,29.85,North,5,0.0,0.0,54,0.00,,,0.00,Wunderground v.1.15,2013-07-02 00:47:00,
2013-07-01 19:53:00,85.1,66.6,29.85,WNW,283,0.0,0.0,54,0.00,,,0.00,Wunderground v.1.15,2013-07-02 00:53:00,
2013-07-01 19:58:00,85.0,66.5,29.86,WNW,284,0.0,0.0,54,0.00,,,0.00,Wunderground v.1.15,2013-07-02 00:58:00,
2013-07-01 20:04:00,84.7,66.7,29.86,WNW,283,0.0,0.0,55,0.00,,,0.00,Wunderground v.1.15,2013-07-02 01:04:00,
2013-07-01 20:10:00,84.3,66.9,29.86,WNW,284,0.0,0.0,56,0.00,,,0.00,Wunderground v.1.15,2013-07-02 01:10:00,
2013-07-01 20:16:00,84.0,67.1,29.86,WSW,237,0.0,0.0,57,0.00,,,0.00,Wunderground v.1.15,2013-07-02 01:16:00,
2013-07-01 20:21:00,83.7,66.8,29.86,WSW,237,0.0,0.0,57,0.00,,,0.00,Wunderground v.1.15,2013-07-02 01:21:00,
2013-07-01 20:27:00,83.3,67.0,29.86,WSW,237,0.0,0.0,58,0.00,,,0.00,Wunderground v.1.15,2013-07-02 01:27:00,
2013-07-01 20:32:00,83.0,67.2,29.86,SW,229,0.0,0.0,59,0.00,,,0.00,Wunderground v.1.15,2013-07-02 01:32:00,
2013-07-01 20:38:00,82.7,66.9,29.86,SW,229,0.0,0.0,59,0.00,,,0.00,Wunderground v.1.15,2013-07-02 01:38:00,
2013-07-01 20:44:00,82.3,67.5,29.86,SW,229,0.0,0.0,61,0.00,,,0.00,Wunderground v.1.15,2013-07-02 01:44:00,
2013-07-01 20:50:00,82.1,67.3,29.86,SW,229,0.0,0.0,61,0.00,,,0.00,Wunderground v.1.15,2013-07-02 01:50:00,
2013-07-01 20:56:00,82.0,67.2,29.87,SW,229,0.0,0.0,61,0.00,,,0.00,Wunderground v.1.15,2013-07-02 01:56:00,
2013-07-01 21:02:00,81.7,67.4,29.86,SW,229,0.0,0.0,62,0.00,,,0.00,Wunderground v.1.15,2013-07-02 02:02:00,
2013-07-01 21:07:00,81.5,67.2,29.87,SW,229,0.0,0.0,62,0.00,,,0.00,Wunderground v.1.15,2013-07-02 02:07:00,
2013-07-01 21:13:00,81.3,67.5,29.87,SW,229,0.0,0.0,63,0.00,,,0.00,Wunderground v.1.15,2013-07-02 02:13:00,
2013-07-01 21:19:00,81.2,67.4,29.88,SW,229,0.0,0.0,63,0.00,,,0.00,Wunderground v.1.15,2013-07-02 02:19:00,
2013-07-01 21:24:00,81.1,67.8,29.88,SW,229,0.0,0.0,64,0.00,,,0.00,Wunderground v.1.15,2013-07-02 02:24:00,
2013-07-01 21:30:00,80.9,67.6,29.88,SW,229,0.0,0.0,64,0.00,,,0.00,Wunderground v.1.15,2013-07-02 02:30:00,
2013-07-01 21:36:00,80.7,67.4,29.88,SW,229,0.0,0.0,64,0.00,,,0.00,Wunderground v.1.15,2013-07-02 02:36:00,
2013-07-01 21:41:00,80.5,67.6,29.88,SW,229,0.0,0.0,65,0.00,,,0.00,Wunderground v.1.15,2013-07-02 02:41:00,
2013-07-01 21:47:00,80.3,67.9,29.88,SW,229,0.0,0.0,66,0.00,,,0.00,Wunderground v.1.15,2013-07-02 02:47:00,
2013-07-01 21:52:00,80.1,67.7,29.88,SW,229,0.0,0.0,66,0.00,,,0.00,Wunderground v.1.15,2013-07-02 02:52:00,
2013-07-01 21:58:00,79.9,68.0,29.89,SW,229,0.0,0.0,67,0.00,,,0.00,Wunderground v.1.15,2013-07-02 02:58:00,
2013-07-01 22:04:00,79.7,67.8,29.89,SW,229,0.0,0.0,67,0.00,,,0.00,Wunderground v.1.15,2013-07-02 03:04:00,
2013-07-01 22:09:00,79.5,68.0,29.89,SW,229,0.0,0.0,68,0.00,,,0.00,Wunderground v.1.15,2013-07-02 03:09:00,
2013-07-01 22:15:00,79.3,67.8,29.89,SW,229,0.0,0.0,68,0.00,,,0.00,Wunderground v.1.15,2013-07-02 03:15:00,
2013-07-01 22:21:00,79.2,68.1,29.89,SW,225,0.0,0.0,69,0.00,,,0.00,Wunderground v.1.15,2013-07-02 03:21:00,
2013-07-01 22:27:00,79.0,68.0,29.89,SW,225,0.0,0.0,69,0.00,,,0.00,Wunderground v.1.15,2013-07-02 03:27:00,
2013-07-01 22:33:00,78.9,67.9,29.89,SW,225,0.0,0.0,69,0.00,,,0.00,Wunderground v.1.15,2013-07-02 03:33:00,
2013-07-01 22:39:00,78.9,67.9,29.89,SW,225,0.0,0.0,69,0.00,,,0.00,Wunderground v.1.15,2013-07-02 03:39:00,
2013-07-01 22:45:00,78.9,67.9,29.90,West,269,0.0,0.0,69,0.00,,,0.00,Wunderground v.1.15,2013-07-02 03:45:00,
2013-07-01 22:50:00,78.9,67.9,29.89,West,271,0.0,0.0,69,0.00,,,0.00,Wunderground v.1.15,2013-07-02 03:50:00,
2013-07-01 22:56:00,78.9,67.9,29.90,West,271,0.0,0.0,69,0.00,,,0.00,Wunderground v.1.15,2013-07-02 03:56:00,
2013-07-01 23:01:00,78.9,67.9,29.90,West,271,0.0,0.0,69,0.00,,,0.00,Wunderground v.1.15,2013-07-02 04:01:00,
2013-07-01 23:02:00,78.9,67.9,29.90,West,271,0.0,0.0,69,0.00,,,0.00,Wunderground v.1.15,2013-07-02 04:02:00,
2013-07-01 23:03:00,78.9,67.9,29.90,West,271,0.0,0.0,69,0.00,,,0.00,Wunderground v.1.15,2013-07-02 04:03:00,
2013-07-01 23:05:00,78.8,67.8,29.90,West,271,0.0,0.0,69,0.00,,,0.00,Wunderground v.1.15,2013-07-02 04:05:00,
2013-07-01 23:07:00,78.8,68.2,29.90,West,271,0.0,0.0,70,0.00,,,0.00,Wunderground v.1.15,2013-07-02 04:07:00,
2013-07-01 23:12:00,78.7,68.1,29.90,West,271,0.0,0.0,70,0.00,,,0.00,Wunderground v.1.15,2013-07-02 04:12:00,
2013-07-01 23:17:00,78.6,68.4,29.90,West,271,0.0,0.0,71,0.00,,,0.00,Wunderground v.1.15,2013-07-02 04:17:00,
2013-07-01 23:23:00,78.4,68.2,29.90,West,271,0.0,0.0,71,0.00,,,0.00,Wunderground v.1.15,2013-07-02 04:23:00,
2013-07-01 23:29:00,78.2,68.0,29.90,West,271,0.0,0.0,71,0.00,,,0.00,Wunderground v.1.15,2013-07-02 04:29:00,
2013-07-01 23:35:00,78.1,68.3,29.90,West,271,0.0,0.0,72,0.00,,,0.00,Wunderground v.1.15,2013-07-02 04:35:00,
2013-07-01 23:40:00,77.9,68.1,29.90,West,271,0.0,0.0,72,0.00,,,0.00,Wunderground v.1.15,2013-07-02 04:40:00,
2013-07-01 23:46:00,77.6,68.3,29.90,West,271,0.0,0.0,73,0.00,,,0.00,Wunderground v.1.15,2013-07-02 04:46:00,
2013-07-01 23:51:00,77.4,68.1,29.90,West,271,0.0,0.0,73,0.00,,,0.00,Wunderground v.1.15,2013-07-02 04:51:00,
2013-07-01 23:57:00,77.3,68.0,29.90,West,271,0.0,0.0,73,0.00,,,0.00,Wunderground v.1.15,2013-07-02 04:57:00,